Other Surface Observations
Issued by NWS Tucson, AZ

Home | Current Version | Previous Version | Text Only | Print | Product List | Glossary On
Versions: 1 2 3 4 5 6 7 8 9 10 11 12 13 14 15 16 17 18 19 20 21 22 23 24 25 26 27 28 29 30 31 32 33 34 35 36 37 38 39 40 41 42 43 44 45 46 47 48 49 50
000
SXUS55 KTWC 260415
OSOTWC

WEATHER ROUNDUP FOR SOUTHEAST ARIZONA
NATIONAL WEATHER SERVICE TUCSON AZ
915 PM MST MON SEP 25 2017

AZZ504>506-514-260515-
LOCATION       SKY/WX    TMP DP  RH WIND       PRES   REMARKS
TUCSON         CLEAR     69  21  16 SW6       29.84R
DAVIS-MONTHAN  CLEAR     72  17  12 W8        29.81R
CHILDRENS PARK N/A      N/A N/A  12 NW4               PIMA CO DEQ
ALVERNON/22ND  N/A       76 N/A N/A NW5               PIMA CO DEQ
CHERRY/GLENN   N/A      N/A N/A N/A N/A               PIMA CO DEQ
TANGERINE      N/A       74 N/A N/A NW4               PIMA CO DEQ
CONTL RANCH    N/A       75  19  12 NW5               PIMA CO DEQ
GRANT/1ST      N/A       75  19  12 NW4               PIMA CO DEQ
CRAYCROFT/22ND N/A       76  18  11 W6                PIMA CO DEQ
GOLFLINKS/KOLB N/A       76  18  11 W6                PIMA CO DEQ
AJO/12TH       N/A       76  20  12 NW4               PIMA CO DEQ
FAIRGROUNDS    N/A       71 N/A N/A NW5               PIMA CO DEQ
SAGUARO        N/A       68  20  16 E2                *SABINO CYN
SAN CARLOS     N/A       71  16  12 CALM              *SAN CARLOS
GREEN VALLEY   N/A       74  20  13 NW3               PIMA CO DEQ
HORSE CAMP CYN N/A       69  16  13 W5G13             *ARAVAIPA CYN
RINCON MTNS    N/A       49  22  34 CALM              *NR MANNING CAMP
$$

AZZ509>511-260515-
LOCATION       SKY/WX    TMP DP  RH WIND       PRES   REMARKS
SAFFORD        CLEAR     66  18  15 NW7       29.81R
STRAY HORSE    N/A       51  10  19 N5G10             *
TRAIL CABIN    N/A       56  17  21 W3                *N OF GRANVILLE
BLACK HILLS    NOT AVBL
DRY LAKE       N/A       52  10  18 SW3               *NATANES MTNS
NOON CREEK     N/A       62  23  22 SW5G11            *PINALENO MTNS
COLUMBINE      N/A       38  22  52 SW2               *PINALENO MTNS
GUTHRIE        N/A       63  24  22 W3                *SW OF GUTHRIE
$$

AZZ502-503-513-260515-
LOCATION       SKY/WX    TMP DP  RH WIND       PRES   REMARKS
NOGALES        CLEAR     66  28  24 CALM      29.89R
SELLS          N/A       67  15  13 E3                *
SASABE         N/A       64  21  19 E2                *ALTAR VLY
HOPKINS        N/A       54  17  23 W8G11             *SANTA RITA MTNS
CARR CYN       N/A       66  28  24 SW5G11            *W OF HEREFORD
$$

AZZ507-508-512-260515-
LOCATION       SKY/WX    TMP DP  RH WIND       PRES   REMARKS
SIERRA VISTA   CLEAR     66  20  17 W9        29.93R
DOUGLAS        CLEAR     68  32  26 CALM      29.88R
EMPIRE MTNS    NOT AVBL
MULESHOE RANCH N/A       65  20  18 NE2               *PRESERVE
HEADQUARTERS   N/A       62  29  29 E4                *CHIRICAHUA MTNS
$$

.............................NOTES.............................
THIS IS AN AUTOMATED COLLECTIVE WITH MINIMAL QUALITY CONTROL.
PIMA CO DEQ SITES HAVE NONSTANDARD WIND SENSOR HEIGHTS.
PIMA CO DEQ SITES DO NOT REPORT WIND GUSTS.
* INDICATES WIND SENSORS LOCATED AT 20 FEET INSTEAD OF 33 FEET.
..............................KEY..............................
SKY/WX - SKY CONDITION/WEATHER
TMP    - TEMPERATURE IN FAHRENHEIT
DP     - DEWPOINT IN FAHRENHEIT
RH     - RELATIVE HUMIDITY IN PERCENT
WIND   - DIRECTION AND SPEED IN MILES PER HOUR (MPH)
VRB    - VARIABLE WIND DIRECTION
PRES   - MEAN SEA LEVEL PRESSURE IN INCHES OF MERCURY
         F - FALLING PRESSURE   R - RISING PRESSURE
         S - STEADY PRESSURE
VSB    - VISIBILITY IN MILES
HX     - HEAT INDEX IN FAHRENHEIT
WCI    - WIND CHILL INDEX IN FAHRENHEIT
N/A    - NOT AVAILABLE
AFB    - AIR FORCE BASE
         DAVIS-MONTHAN IS DAVIS-MONTHAN AIR FORCE BASE
CYN    - CANYON
MTNS   - MOUNTAINS
NCA    - NATIONAL CONSERVATION AREA
NR     - NEAR
VLY    - VALLEY
CONTL  - CONTINENTAL
PIMA CO DEQ - PIMA COUNTY DEPT OF ENVIRONMENTAL QUALITY



USA.gov is the U.S. government's official web portal to all federal, state and local government web resources and services.